Location: Cussy
(47.0410°N, 4.6412°E)
Time: 20:12:12
(UTC+00:00)

NOSS 3-2 (A) - Pass Details

Date: 30 November 2020
Orbit: 789 x 1419 km, 63.4° (Epoch: 22 January)

Event Time Altitude Azimuth Distance (km) Brightness Sun altitude
Rises 17:28:33 0° 182° (S) 3,317 6.5 -15.5°
Reaches altitude 10° 17:31:09 10° 171° (S) 2,435 5.7 -15.9°
Maximum altitude 17:35:54 29° 113° (ESE) 1,573 4.2 -16.7°
Enters shadow 17:37:25 26° 87° (E) 1,722 4.2 -16.9°
